Location: Martz Observatory
(42.0083°N, 79.0667°W)
Time: 04:19:07
(UTC-04:00)

Daily predictions for brighter satellites

Satellite Brightness Start Highest point End
(mag) Time Altitude Azimuth Time Altitude Azimuth Time Altitude Azimuth
CZ-4 R/B 4.0 00:01:31 10° NNE 00:06:23 60° E 00:06:23 60° E
Cosmos 2237 Rocket 2.1 00:04:29 10° NNW 00:10:13 80° ENE 00:11:02 65° SE
Cosmos 2082 3.7 00:16:48 60° ESE 00:16:54 60° ESE 00:22:33 10° NNE
CZ-4B R/B 4.3 00:16:11 10° NNE 00:20:34 39° E 00:20:34 39° E
H-2A R/B 3.0 00:26:57 39° ENE 00:26:57 39° ENE 00:30:39 10° N
ERBS 4.3 00:24:48 10° NNW 00:27:04 27° N 00:27:04 27° N
COBE Rocket 3.8 00:23:37 10° N 00:28:20 75° WNW 00:28:22 75° W
Mayak -0.4 00:24:26 10° NNE 00:27:37 43° NE 00:27:37 43° NE
Cosmos 2266 Rocket 4.0 00:25:33 10° N 00:31:55 70° E 00:33:02 59° SE
Cosmos 2084 Rocket 4.2 00:28:49 10° NW 00:31:43 46° NNW 00:31:43 46° NNW
Meteor 2-11 Rocket 4.3 00:32:08 63° SE 00:32:50 69° E 00:38:54 10° NNE
Cosmos 773 Rocket 4.5 00:41:37 47° W 00:42:25 51° WNW 00:47:27 10° N
CZ-4C R/B 3.8 00:40:46 10° NW 00:47:17 34° WSW 00:48:29 32° SW
Cosmos 1758 4.4 00:43:26 10° NNW 00:46:29 40° NW 00:46:29 40° NW
COSMOS 2455 3.1 00:50:52 47° WSW 00:52:29 64° WNW 00:58:30 10° NNE
Cosmos 1400 Rocket 4.2 00:53:58 34° NE 00:53:58 34° NE 00:56:44 10° NNE
CZ-2C R/B 4.3 00:49:10 10° N 00:53:53 29° WNW 00:56:18 21° WSW
Cosmos 2219 Rocket 3.9 00:55:26 10° NW 00:59:15 19° W 00:59:19 19° W
Cosmos 1238 Rocket 3.9 01:05:17 45° ENE 01:05:17 45° ENE 01:08:29 10° NNE
Cosmos 1470 4.4 01:08:33 10° NNW 01:10:54 29° NW 01:10:54 29° NW
Cosmos 1818 3.9 01:13:58 53° W 01:14:48 60° NW 01:20:14 10° NNE
Meteor 1-24 Rocket 4.2 01:15:29 48° ESE 01:15:51 49° E 01:21:30 10° NNE
Cosmos 2333 Rocket 4.3 01:18:52 10° WNW 01:21:38 14° W 01:21:38 14° W
Meteor 2-5 Rocket 3.6 01:22:13 77° S 01:22:41 86° E 01:28:38 10° N
ALOS 2 3.9 01:23:42 32° WNW 01:23:42 32° WNW 01:26:49 10° NNW
Cosmos 2263 Rocket 3.8 01:24:40 22° E 01:24:40 22° E 01:28:57 10° NE
SL-16 R/B 2.3 01:21:15 10° NNW 01:26:44 61° WSW 01:26:44 61° WSW
Nadezhda 2 Rocket 4.4 01:20:29 10° N 01:26:57 81° W 01:27:51 67° SSW
Cosmos 1315 Rocket 4.1 01:28:22 35° NE 01:28:22 35° NE 01:31:01 10° NNE
Cosmos 1371 Rocket 3.9 01:22:16 10° NNW 01:27:33 77° ENE 01:27:39 76° E
Cosmos 1953 4.4 01:25:51 10° NW 01:27:47 19° WNW 01:27:47 19° WNW
Meteor 1-16 Rocket 4.1 01:23:51 10° NNW 01:29:04 69° W 01:29:04 69° W
ISS -1.2 01:26:19 10° NW 01:27:41 20° NNW 01:27:41 20° NNW
deb Chang Zheng 4 4.2 01:34:36 10° N 01:38:21 51° NW 01:38:21 51° NW
Cosmos 1726 4.0 01:37:45 10° NNE 01:40:17 25° ENE 01:40:17 25° ENE
S3M 4.1 01:41:11 55° SE 01:42:10 63° E 01:48:21 10° NNE
Cosmos 1953 Rocket 4.0 01:43:34 58° NNW 01:43:34 58° NNW 01:47:10 10° N
Cosmos 972 Rocket 4.0 01:43:21 69° W 01:43:35 70° WNW 01:48:40 10° NNE
Cosmos 2297 Rocket 3.9 01:41:29 19° W 01:44:03 26° NW 01:48:45 10° N
Cosmos 2056 Rocket 3.3 01:39:19 10° NNW 01:44:26 85° ENE 01:44:26 85° ENE
ADEOS Rocket 3.5 01:40:37 10° N 01:45:46 42° WNW 01:46:45 38° W
Cosmos 1346 Rocket 3.9 01:42:15 10° N 01:45:13 39° NE 01:45:13 39° NE
Cosmos 2227 Rocket 4.1 01:44:40 15° W 01:47:40 22° NW 01:52:02 10° N
Cosmos-2242 3.4 01:45:19 10° N 01:48:51 60° NNW 01:48:51 60° NNW
Cosmos 1758 Rocket 4.3 01:53:12 45° WNW 01:53:12 45° WNW 01:57:06 10° N
Cosmos 2237 Rocket 4.3 01:50:38 10° WNW 01:52:51 14° W 01:52:51 14° W
Cosmos 1624 Rocket 3.9 01:49:10 10° NNW 01:54:27 74° WSW 01:54:27 74° WSW
NOSS 3-1 (C) 3.2 01:56:13 66° SSE 01:56:39 68° ESE 02:02:56 10° NE
SL-24 R/B 4.3 01:52:31 10° N 01:56:56 69° NW 01:56:56 69° NW
Cosmos 1603 3.7 01:52:47 10° NNW 01:58:29 80° ENE 01:59:24 63° SE
H-2A R/B 4.2 02:04:03 16° WNW 02:04:03 16° WNW 02:05:48 10° NW
Mayak 1.2 02:01:33 10° NNW 02:03:44 14° WNW 02:04:15 14° WNW
Cosmos 2227 4.1 02:08:38 65° WSW 02:09:21 75° WNW 02:15:01 10° NNE
Meteor 2-1 Rocket 4.2 02:07:10 10° N 02:12:57 87° W 02:13:53 65° S
CZ-4B R/B 2.9 02:15:56 36° NE 02:15:56 36° NE 02:18:34 10° N
SL-08 R/B 4.4 02:09:26 10° NNW 02:15:28 63° W 02:16:21 57° SW
USA 229 DEB 4.0 02:13:41 37° WSW 02:16:18 58° NW 02:23:08 10° NNE
USA 229 4.0 02:13:49 37° WSW 02:16:23 58° NW 02:23:14 10° NNE
NOSS 3-1 (A) 3.3 02:16:40 60° SSE 02:17:25 67° ESE 02:23:43 10° NE
Cosmos 1626 4.2 02:22:28 20° E 02:22:31 20° E 02:25:18 10° NE
Cosmos 1553 Rocket 4.2 02:21:27 48° WSW 02:22:40 55° WNW 02:28:43 10° N
Cosmos 1674 3.7 02:26:46 38° NW 02:26:46 38° NW 02:29:30 10° N
CZ-2D R/B 3.7 02:23:46 10° NE 02:27:59 24° E 02:29:47 20° SE
Cosmos 2292 Rocket 4.4 02:24:33 10° NNW 02:28:09 43° W 02:28:09 43° W
USA 267 4.4 02:23:11 10° ENE 02:28:35 27° SE 02:29:44 25° SE
Meteor 1-21 Rocket 4.3 02:30:51 53° SSE 02:32:15 76° E 02:38:10 10° NNE
Cosmos 1689 Rocket 3.7 02:34:06 36° NNE 02:34:06 36° NNE 02:36:15 10° N
Cosmos 2221 2.9 02:32:47 10° N 02:37:07 57° E 02:37:43 52° ESE
Genesis I 3.9 02:38:54 48° E 02:38:54 48° E 02:42:18 10° NE
PSLV R/B 4.1 02:34:28 10° N 02:38:40 46° WNW 02:38:45 46° WNW
Cosmos 1340 3.0 02:35:48 10° N 02:39:08 65° NNE 02:39:08 65° NNE
MOS 1 Rocket 4.1 02:35:07 10° N 02:40:21 48° WNW 02:41:21 43° WSW
Resurs 1-4 Rocket 3.1 02:41:46 10° NNE 02:46:41 37° E 02:48:39 28° SE
Aureole 1 Rocket 3.4 02:50:34 42° N 02:50:34 42° N 02:52:40 10° NNE
Cosmos 1844 Rocket 4.4 02:47:20 18° SE 02:49:43 24° ESE 02:54:08 10° NE
Cosmos 883 Rocket 4.5 02:51:11 47° SW 02:52:52 67° W 02:59:00 10° N
IRS-P3 4.5 02:49:18 10° NNE 02:54:32 56° E 02:56:17 39° SSE
DELTA 2 R/B (1) 3.5 02:55:45 45° WSW 02:57:15 62° S 03:02:47 10° ESE
NPP 3.8 02:51:55 10° NNE 02:57:18 66° ESE 02:59:02 42° SSE
SL-16 R/B 2.7 03:00:50 22° SSE 03:05:00 73° ENE 03:11:12 10° N
SL-08 ROCKET BODY 4.3 03:01:57 10° N 03:08:03 79° W 03:10:38 37° S
Cosmos 2263 Rocket 2.6 03:06:21 38° WSW 03:08:09 54° WNW 03:13:45 10° NNE
Cosmos 1703 4.5 03:07:23 30° SE 03:08:30 36° E 03:12:10 10° NNE
Cosmos 2315 Rocket 4.0 03:06:43 42° SSW 03:08:53 67° W 03:15:07 10° N
Cosmos 1943 3.5 03:03:57 10° NW 03:09:23 47° WSW 03:10:17 43° SW
Cosmos 1766 Rocket 4.4 03:08:02 31° SE 03:09:29 43° E 03:13:38 10° NNE
Cosmos 921 Rocket 3.5 03:06:38 10° N 03:10:53 57° ENE 03:13:09 26° SE
NOSS 2-3 (D) 4.1 03:10:35 44° SSE 03:11:38 55° ESE 03:16:43 10° NE
GEOS 3 Rocket 3.9 03:06:24 10° NNE 03:11:40 60° NW 03:13:41 36° WSW
BREEZE M DEB (TANK) 3.6 03:10:48 33° SSW 03:14:20 58° SSE 03:17:55 10° ENE
Cosmos 1726 4.3 03:13:27 10° NW 03:14:50 16° WNW 03:14:50 16° WNW
Cosmos 1300 3.4 03:12:47 10° NNW 03:15:57 38° WNW 03:15:57 38° WNW
Cosmos 1269 Rocket 3.9 03:16:04 44° SSW 03:17:48 89° WNW 03:23:09 10° NNE
Cosmos 1452 Rocket 4.3 03:19:30 10° NW 03:24:07 31° W 03:24:24 31° WSW
H-2A R/B 2.5 03:21:01 10° NNE 03:25:30 89° WNW 03:26:46 46° SSW
Meteor 2-2 Rocket 4.3 03:20:35 10° N 03:26:23 81° E 03:30:15 21° SSE
Cosmos 1455 3.0 03:22:55 10° N 03:26:34 47° ENE 03:28:26 25° SE
Cosmos 1048 Rocket 4.5 03:30:07 34° WSW 03:31:56 48° WNW 03:37:02 10° N
NOSS 2-3 (E) 3.7 03:30:40 42° SSW 03:32:16 88° ESE 03:37:36 10° NE
Cosmos 1408 Rocket 3.6 03:34:24 34° S 03:36:12 72° E 03:40:33 10° NNE
Cosmos 2058 3.7 03:34:44 24° SSE 03:36:56 48° E 03:41:01 10° NNE
Geosat 4.3 03:33:07 10° NNE 03:38:06 60° ESE 03:40:39 28° S
ATLAS 2AS CENTAUR R/B 4.0 03:35:04 16° S 03:40:43 39° ESE 03:48:02 10° NE
AQUA 4.1 03:41:14 10° N 03:45:51 52° WNW 03:47:46 32° SW
Okean 3 Rocket 4.2 03:44:47 33° WSW 03:46:03 41° WNW 03:50:17 10° N
Cosmos 2074 Rocket 3.9 03:42:31 10° NNW 03:48:44 73° W 03:53:17 19° S
SWAS 4.4 03:45:00 10° NNW 03:49:16 67° WSW 03:52:05 21° S
Nadezhda 1 Rocket 4.0 03:45:18 21° S 03:49:41 83° E 03:56:02 10° N
SL-24 R/B - RUBIN 2 4.5 03:47:47 26° WSW 03:50:20 46° NW 03:54:57 10° NNE
Cosmos 1607 3.9 03:43:59 10° NW 03:50:20 66° WSW 03:56:33 10° SSE
SAR-Lupe-2 4.0 03:48:38 16° SSE 03:51:19 61° ENE 03:54:52 10° N
Cosmos 2184 Rocket 4.0 03:47:53 10° NNW 03:54:15 69° W 03:59:10 17° S
SeaSat 1 2.4 03:51:16 12° SSE 03:55:51 65° WSW 04:00:47 10° NNW
Cosmos 2154 Rocket 4.2 03:50:21 10° N 03:56:39 73° E 04:02:58 10° SSE
Spot 4 Rocket 4.0 03:51:45 10° NNE 03:56:55 83° WNW 04:00:06 24° SSW
Cosmos 1626 3.5 03:57:05 23° W 03:57:41 24° WNW 04:00:47 10° NNW
UNK 4.5 03:59:24 28° SW 04:00:52 34° W 04:05:08 10° NNW
Meteor 1-27 4.2 03:57:44 10° NNW 04:03:23 66° W 04:08:15 14° S
Cosmos 1610 Rocket 4.5 04:00:47 10° N 04:07:11 79° W 04:13:29 10° S
Cosmos 1743 Rocket 3.6 04:04:18 19° S 04:07:22 76° E 04:11:42 10° N
CZ-2D R/B 2.7 04:03:19 10° N 04:08:12 41° WNW 04:11:07 22° SW
Cosmos 2151 2.9 04:07:26 22° S 04:10:13 84° W 04:14:34 10° N
NOSS 2-3 (C) 4.5 04:07:51 22° WSW 04:10:40 47° NW 04:15:57 10° NNE
USA 267 3.3 04:05:27 10° NE 04:12:01 84° NW 04:17:05 18° SW
SL-08 R/B 4.4 04:10:45 23° SW 04:12:29 28° W 04:16:44 10° NW
Meteor 2-21 4.4 04:06:29 10° NNW 04:12:33 71° W 04:18:33 10° S
Cosmos 1932 4.3 04:06:29 10° NW 04:12:43 76° WSW 04:18:52 10° SSE
IRS-1D 4.1 04:09:06 10° N 04:14:09 45° WNW 04:17:28 20° SW
Cosmos 1110 Rocket 4.4 04:12:11 10° NNW 04:17:04 42° WSW 04:21:14 14° S
ARIANE 5 R/B 2.8 04:13:22 10° N 04:18:18 53° WNW 04:21:43 19° SW
Cosmos 405 Rocket 3.2 04:14:32 10° N 04:18:20 59° ENE 04:22:03 10° SSE
ATLAS 3B R/B 4.1 04:14:50 10° NNW 04:21:05 41° NE 04:27:13 10° ESE
Meteor 2-10 Rocket 3.6 04:19:11 10° N 04:24:16 75° E 04:29:15 10° SSE
BREEZE-M DEB (TANK) 3.5 04:19:24 16° WSW 04:25:43 74° SSE 04:29:00 10° ENE
Resurs 1-4 Rocket 3.2 04:21:51 10° N 04:26:21 29° WNW 04:29:44 15° WSW
Cosmos 220 Rocket 3.9 04:24:16 17° SSW 04:27:33 86° WNW 04:31:53 10° NNE
H-II Stage 2 4.2 04:24:03 17° SW 04:27:50 31° SSE 04:48:38 10° ESE
Meteor 2-14 Rocket 4.5 04:24:34 10° NNW 04:30:36 63° W 04:36:35 10° S
Cosmos 1844 Rocket 3.1 04:29:01 17° SW 04:33:15 50° WNW 04:38:46 10° NNE
OAO 2 Rocket 3.9 04:32:58 16° WSW 04:36:29 37° S 04:41:00 10° ESE
Cosmos 1328 Rocket 4.4 04:37:00 10° NNW 04:40:48 30° W 04:44:01 13° SSW
Cosmos 1441 Rocket 3.4 04:37:43 10° NNW 04:41:37 54° W 04:45:26 10° S
Cosmos 1500 Rocket 3.8 04:39:17 13° SSW 04:43:11 54° W 04:47:32 10° N
DELTA 2 R/B (1) 4.3 04:38:23 10° W 04:43:13 31° SSW 04:48:05 10° SSE
Cosmos 2278 Rocket 2.5 04:37:56 10° SSW 04:43:32 68° ESE 04:49:11 10° NNE
SL-19 R/B 3.4 04:40:55 10° S 04:43:50 68° WSW 04:46:39 10° NNW
USA 234 3.8 04:38:59 10° ESE 04:45:24 64° NE 04:51:52 10° NW
ADEOS II 2.1 04:41:11 10° N 04:46:28 80° WNW 04:51:42 10° SSW
SL-24 DEB 4.3 04:44:03 10° S 04:48:48 71° W 04:53:34 10° N
Cosmos 1844 4.1 04:44:12 13° SW 04:49:00 49° WNW 04:54:32 10° NNE
SL-16 R/B 4.0 04:45:56 12° SW 04:49:10 18° W 04:53:14 10° NW
Cosmos 1833 Rocket 4.3 04:45:17 10° N 04:50:32 39° ENE 04:55:45 10° SE
Meteor 2-8 Rocket 4.5 04:45:33 10° S 04:51:41 83° W 04:57:53 10° N
Cosmos 2228 Rocket 3.8 04:48:26 10° NNW 04:52:39 36° W 04:56:48 10° SSW
Cosmos 1892 4.1 04:50:38 10° SSE 04:54:15 39° E 04:57:52 10° NNE
UNKNOWN OBJECT B 3.7 04:52:08 10° N 04:55:27 30° WNW 04:58:38 11° SW
Cosmos 1455 4.3 05:00:58 10° WNW 05:01:44 10° W 05:02:29 10° W
USA 238 DEB 3.9 04:54:43 10° NW 05:01:54 86° NE 05:09:09 10° SE
USA 238 3.9 04:54:50 10° NW 05:02:00 86° ENE 05:09:16 10° SE
Lacrosse 5 3.8 05:02:30 10° S 05:06:25 23° ESE 05:10:22 10° ENE
Cosmos 1666 Rocket 4.3 05:04:02 10° S 05:08:24 58° E 05:12:46 10° NNE
Cosmos 1633 Rocket 4.1 05:04:27 10° SSE 05:08:36 47° E 05:12:48 10° NNE
GP-B 3.6 05:04:58 10° NNW 05:09:11 43° W 05:13:22 10° SSW
Helios 1A Rocket 4.3 05:06:22 10° NNW 05:09:36 23° WNW 05:12:49 10° WSW
Cosmos 1869 4.4 05:09:18 10° NNW 05:12:38 27° W 05:15:59 10° SSW
PSLV R/B 3.6 05:08:34 10° NNE 05:12:52 88° ESE 05:17:10 10° SSW
Cosmos 2341 Rocket 4.4 05:07:49 10° NNW 05:13:39 43° W 05:19:30 10° SSW
Cosmos 724 4.4 05:08:33 10° NW 05:14:28 66° WSW 05:20:29 10° SSE
PSLV R/B 4.5 05:11:29 10° NNE 05:15:11 54° E 05:18:57 10° S
COSMOS 2406 3.9 05:10:25 10° NW 05:15:31 33° WSW 05:20:36 10° SSW
